Tracking 21094 objects as of 11-Aug-2020
HD Live streaming from Space Station
objects crossing your sky now
Track the most recent launched group of Starlink satellites

TITAN 3C TRANSTAGE DEB

Track TITAN 3C TRANSTAGE DEB now!
10-day predictions


NORAD ID: 1680
Int'l Code: 1965-082AT
Perigee: 673.7 km
Apogee: 703.9 km
Inclination: 32.3 °
Period: 98.4 minutes
Semi major axis: 7059 km
RCS: 2.2194 m2 (large)
Launch date: October 15, 1965
Source: United States (US)
Launch site: AIR FORCE EASTERN TEST RANGE (AFETR)

Note: This is SATELLITE DEBRIS
aabbcc
Your satellite tracking list
Your tracking list is empty




NASA's NSSDC Master Catalog

Two Line Element Set (TLE):
1  1680U 65082AT  20224.28602582 +.00000071 +00000-0 +67364-5 0  9998
2  1680 032.2548 220.8005 0021352 050.7884 309.4656 14.63571397900382
Source of the keplerian elements: AFSPC